[[{"header":{"parameterUnit":"m.s-1","parameterCategory":1,"la1":30.2991,"la2":30.254,"lo1":-89.0895,"lo2":-89.0444,"dy":0.0017,"dx":0.0017,"nx":28,"ny":28,"refTime":"2023-08-06T09:00:00:Z","depth":0,"parameterNumber":2,"parameterNumberName":"U-component_of_WINDS"},"data":[0,0,0,0,0,0,0,0,0,0,0,0,0,0,0,0,0,0,0,0,0,0,0,0,0,0,0,0,0,0,0,0,0,0,0,0,0,0,0,0,0,0,0,0,0,0,0,0,0,0,0,0,0,0,0,0,0,0,2.747,2.747,0,2.7414,2.7413,2.7412,2.7276,2.7273,2.7271,2.7268,2.7212,2.7213,2.7214,0,0,0,0,0,0,0,0,0,0,0,0,0,2.7462,2.7463,2.747,2.747,2.7469,2.7414,2.7413,2.7412,2.7277,2.7273,2.727,2.7267,2.7211,2.7213,2.7214,0,0,0,0,0,0,0,0,0,0,0,0,0,2.7442,2.7463,2.7471,2.7395,2.7387,2.7414,2.7413,2.7412,2.7278,2.7273,2.7269,2.7265,2.7211,2.7212,2.7214,2.731,0,0,2.7219,2.722,0,0,0,0,0,0,0,0,2.7443,2.7442,2.7407,2.74,2.7392,2.7348,2.7389,2.7378,2.7279,2.7319,2.7268,2.7263,2.726,2.7258,2.7257,2.7308,2.7305,2.722,2.7221,2.7221,2.7222,0,0,0,0,0,0,0,2.7445,2.7444,2.7448,2.7406,2.7397,2.7364,2.7356,2.7386,2.7315,2.7315,2.7305,2.73,2.7256,2.7255,2.7254,2.7304,2.722,2.7221,2.7222,2.7223,2.7429,2.7433,0,0,0,0,0,0,2.7457,2.7446,2.745,2.7446,2.7407,2.7367,2.7359,2.7366,2.7314,2.7302,2.7304,2.7294,2.7254,2.7252,2.7252,2.7358,2.7221,2.7223,2.7224,2.7424,2.743,2.7434,0,0,0,0,0,0,2.7457,2.7458,2.7452,2.7443,2.744,2.7372,2.7381,2.7367,2.7367,2.7305,2.7292,2.7317,2.7251,2.7249,2.7296,2.7355,2.7224,2.7225,2.7419,2.7426,2.7432,2.7574,0,0,0,0,0,0,2.7458,2.7459,2.7495,2.7445,2.7441,2.7498,2.7385,2.7369,2.737,2.7356,2.7314,2.7303,2.7247,2.7294,2.7298,2.7355,2.7227,2.7413,2.7422,2.743,2.7564,2.7585,2.7603,0,0,0,0,0,2.7458,2.7539,2.7498,2.7499,2.7484,2.7501,2.7499,2.7433,2.7375,2.741,2.7371,2.7304,2.7348,2.73,2.7303,2.7361,2.7409,2.742,2.7429,2.7555,2.7581,2.7603,0,0,0,0,0,0,2.7598,2.7531,2.7485,2.7552,2.7533,2.7478,2.752,2.7463,2.7461,2.7448,2.7368,2.7359,2.7417,2.7394,2.7341,2.745,2.7368,2.7379,2.7463,2.7486,2.7506,2.7509,2.7228,0,0,0,0,0,2.7637,2.7656,2.7596,2.7661,2.7654,2.759,2.7594,2.7545,2.7523,2.7515,2.7478,2.746,2.7469,2.7477,2.7482,2.7561,2.7548,2.7602,2.7622,2.7638,2.7648,2.7685,2.7708,2.7467,2.7467,2.7467,0,0,2.7717,2.7683,2.77,2.7688,2.7668,2.7689,2.7584,2.7611,2.7626,2.7519,2.7559,2.7533,2.7507,2.7569,2.7595,2.7552,2.7712,2.7651,2.7664,2.7665,2.7698,2.7721,2.7741,2.7474,2.7473,2.7472,0,0,2.7873,2.785,2.79,2.7882,2.7852,2.7808,2.7821,2.7775,2.7752,2.7792,2.7711,2.7728,2.7747,2.773,2.7725,2.7874,2.7812,2.7878,2.7979,2.8017,2.8036,2.8052,2.8103,2.8122,2.7889,2.7889,2.7889,0,2.7977,2.8005,2.7933,2.7965,2.7962,2.7866,2.7915,2.7901,2.7876,2.7876,2.7828,2.7847,2.7823,2.7879,2.7915,2.7915,2.7925,2.7882,2.8039,2.8054,2.8068,2.8116,2.8136,2.7897,2.7896,2.7896,2.7895,0,2.8132,2.8153,2.8197,2.8173,2.8175,2.8216,2.8151,2.8161,2.8113,2.8074,2.8115,2.8082,2.8078,2.8089,2.8042,2.8138,2.8112,2.8053,2.7968,2.8101,2.8144,2.8162,2.7909,2.7906,2.7904,2.7902,0,0,2.8374,2.8309,2.8327,2.8313,2.8274,2.8288,2.8325,2.832,2.833,2.8316,2.8343,2.836,2.8305,2.8299,2.8249,2.8283,2.84,2.8219,2.8217,2.8251,2.8501,2.8544,2.8566,2.8359,2.8363,2.8365,2.8502,0,2.8518,2.8575,2.8512,2.8582,2.86,2.8509,2.854,2.8519,2.8484,2.8494,2.8455,2.8468,2.8395,2.839,2.8419,2.838,2.8448,2.8369,2.8383,2.8384,2.8389,2.8589,2.8634,2.8765,2.8519,2.8522,2.8524,0,2.8694,2.8687,2.8759,2.8712,2.8717,2.8747,2.8736,2.8747,2.8721,2.8693,2.8686,2.8626,2.8658,2.8577,2.8619,2.8566,2.8568,2.855,2.8553,2.855,2.846,2.8589,2.8806,2.8825,2.855,2.8548,2.8546,0,2.886,2.8868,2.8911,2.8904,2.8852,2.8874,2.8853,2.8823,2.8824,2.8815,2.8814,2.8811,2.8808,2.8806,2.8746,2.8693,2.8795,2.871,2.8771,2.8773,2.8795,2.8794,2.9013,2.8801,2.8801,2.8801,2.88,0,2.9026,2.9073,2.8985,2.9011,2.9061,2.8988,2.9039,2.9009,2.8983,2.9002,2.8924,2.8943,2.8864,2.8875,2.8829,2.887,2.887,2.8847,2.8834,2.8853,2.8855,2.8851,2.884,2.8806,2.8805,2.8804,2.8803,0,2.9219,2.9162,2.9203,2.915,2.9138,2.9176,2.9131,2.9153,2.9113,2.9138,2.9139,2.9077,2.9085,2.9026,2.9024,2.8993,2.9055,2.9027,2.9063,2.9054,2.9118,2.9112,2.934,2.9365,2.914,2.9142,2.9144,0,2.9328,2.9361,2.9312,2.9318,2.9301,2.9313,2.9313,2.9243,2.9246,2.9218,2.9243,2.9245,2.9243,2.9261,2.9215,2.9213,2.9183,2.9263,2.9182,2.92,2.9181,2.9179,2.9181,2.928,2.9283,2.9285,2.9287,0,2.9526,2.9495,2.9498,2.949,2.9492,2.9483,2.9469,2.9479,2.9402,2.941,2.9417,2.9415,2.9412,2.9415,2.9404,2.9382,2.9322,2.9313,2.9326,2.9345,2.9363,2.9351,2.9107,2.9307,2.9305,2.9304,2.9303,2.9302,2.9677,2.9702,2.967,2.9675,2.9657,2.9645,2.9663,2.9625,2.9629,2.9621,2.9579,2.9594,2.9566,2.9544,2.9529,2.9539,2.95,2.9521,2.9525,2.9531,2.9541,2.9364,2.9537,2.9536,2.9535,2.9535,2.9534,0,2.9869,2.9844,2.9849,2.9831,2.9835,2.9777,2.9759,2.9765,2.9779,2.9758,2.9757,2.9764,2.9766,2.9721,2.9717,2.9734,2.9706,2.9735,2.9731,2.9727,2.9577,2.9564,2.9757,2.9757,2.9757,2.9757,2.9757,2.9757,2.9969,3.0006,2.9973,3.0001,2.9975,2.9988,2.9982,2.9971,2.9953,2.9965,2.9966,2.9936,2.9904,2.9897,2.9896,2.9883,2.9884,2.9922,2.9899,2.976,2.9738,2.9717,2.9705,2.9924,2.9924,3.0047,3.0049,3.0049]},{"header":{"parameterUnit":"m.s-1","parameterCategory":1,"la1":30.2991,"la2":30.254,"lo1":-89.0895,"lo2":-89.0444,"dy":0.0017,"dx":0.0017,"nx":28,"ny":28,"refTime":"2023-08-06T09:00:00:Z","depth":0,"parameterNumber":3,"parameterNumberName":"V-component_of_WINDS"},"data":[0,0,0,0,0,0,0,0,0,0,0,0,0,0,0,0,0,0,0,0,0,0,0,0,0,0,0,0,0,0,0,0,0,0,0,0,0,0,0,0,0,0,0,0,0,0,0,0,0,0,0,0,0,0,0,0,0,0,3.3263,3.3264,0,3.3326,3.3327,3.3328,3.3286,3.3284,3.3282,3.328,3.3341,3.3344,3.3348,0,0,0,0,0,0,0,0,0,0,0,0,0,3.3103,3.3106,3.3263,3.3264,3.3265,3.3326,3.3327,3.3328,3.3286,3.3284,3.3282,3.3279,3.334,3.3344,3.3348,0,0,0,0,0,0,0,0,0,0,0,0,0,3.317,3.3107,3.3263,3.3252,3.3251,3.3326,3.3327,3.3328,3.3287,3.3284,3.3281,3.3278,3.3339,3.3344,3.3349,3.3437,0,0,3.3364,3.3366,0,0,0,0,0,0,0,0,3.3166,3.3176,3.3252,3.3252,3.3252,3.3295,3.3293,3.3364,3.3287,3.3273,3.328,3.3277,3.3328,3.3334,3.3352,3.344,3.3443,3.3365,3.3368,3.337,3.3371,0,0,0,0,0,0,0,3.3161,3.3173,3.3288,3.3254,3.3253,3.3242,3.3248,3.3306,3.3316,3.3274,3.3271,3.3279,3.3327,3.3347,3.3353,3.3443,3.3364,3.3369,3.3372,3.3374,3.3606,3.3609,0,0,0,0,0,0,3.3158,3.3169,3.3286,3.329,3.3201,3.3247,3.3254,3.3284,3.3315,3.3317,3.3282,3.3277,3.334,3.3347,3.3355,3.3459,3.337,3.3375,3.3378,3.3603,3.3606,3.361,0,0,0,0,0,0,3.3155,3.3169,3.3283,3.3229,3.3242,3.3253,3.3287,3.3287,3.3307,3.3321,3.3322,3.33,3.3338,3.3348,3.3417,3.3461,3.3377,3.3382,3.3599,3.3604,3.3608,3.3669,0,0,0,0,0,0,3.3151,3.3168,3.3203,3.323,3.3246,3.3346,3.329,3.329,3.3316,3.3311,3.3338,3.334,3.3336,3.3409,3.3422,3.3466,3.3385,3.3595,3.3601,3.3607,3.3663,3.3675,3.3686,0,0,0,0,0,3.3145,3.3217,3.3205,3.3219,3.3289,3.3349,3.3357,3.3352,3.332,3.3354,3.3363,3.3339,3.3454,3.3417,3.3431,3.3477,3.3592,3.3599,3.3606,3.3658,3.3673,3.3685,0,0,0,0,0,0,3.3194,3.3221,3.3207,3.3291,3.3318,3.3341,3.3384,3.3368,3.3404,3.3397,3.3388,3.3395,3.3467,3.3479,3.3437,3.3563,3.3518,3.3528,3.3553,3.3567,3.3578,3.3573,3.339,0,0,0,0,0,3.3215,3.3262,3.3282,3.3354,3.3368,3.3374,3.34,3.3393,3.342,3.3431,3.3445,3.3472,3.3513,3.3541,3.358,3.3665,3.367,3.3704,3.3715,3.3724,3.3732,3.3777,3.3791,3.3633,3.3633,3.3632,0,0,3.3258,3.3278,3.3308,3.3364,3.3384,3.3431,3.3384,3.3436,3.3471,3.3439,3.3505,3.3516,3.3545,3.3622,3.3657,3.3634,3.3777,3.3733,3.374,3.3743,3.3785,3.38,3.3814,3.3637,3.3636,3.3636,0,0,3.3359,3.3381,3.3442,3.3463,3.3495,3.3498,3.3513,3.3539,3.3546,3.3613,3.3589,3.363,3.3702,3.3723,3.3743,3.3853,3.3832,3.3866,3.3924,3.3967,3.3979,3.399,3.4028,3.4042,3.3874,3.3875,3.3875,0,3.3408,3.348,3.3475,3.3529,3.3553,3.3528,3.3589,3.361,3.3652,3.3669,3.3644,3.3734,3.3751,3.3832,3.3859,3.3877,3.3892,3.3862,3.3978,3.3989,3.3999,3.4035,3.4049,3.3878,3.3878,3.3878,3.3877,0,3.3538,3.3588,3.3633,3.3676,3.3705,3.3763,3.3765,3.3795,3.3786,3.3792,3.3859,3.388,3.3922,3.3941,3.3933,3.4021,3.4005,3.398,3.3933,3.4019,3.4052,3.4065,3.3884,3.3882,3.3881,3.388,0,0,3.3671,3.3711,3.3727,3.3746,3.3779,3.3816,3.3872,3.3914,3.394,3.397,3.4015,3.4077,3.4053,3.4076,3.407,3.4108,3.4192,3.4077,3.4078,3.4096,3.4288,3.4306,3.4322,3.4179,3.4181,3.4183,3.4285,0,3.3774,3.3872,3.3869,3.3959,3.4004,3.3981,3.4029,3.4053,3.406,3.4098,3.4105,3.4149,3.4115,3.4129,3.4165,3.4174,3.423,3.4167,3.4219,3.4221,3.4211,3.4339,3.4359,3.4454,3.4298,3.43,3.4302,0,3.3906,3.3942,3.4037,3.4063,3.4081,3.4125,3.4163,3.42,3.4227,3.4229,3.4255,3.4243,3.4297,3.4251,3.4325,3.4282,3.4303,3.4311,3.4314,3.4317,3.4265,3.4345,3.4484,3.4497,3.4322,3.4321,3.4319,0,3.3992,3.4064,3.413,3.4146,3.4178,3.4209,3.4223,3.4248,3.4273,3.4306,3.4322,3.4361,3.4382,3.4412,3.4409,3.4376,3.4484,3.4438,3.4486,3.4486,3.4508,3.4506,3.4651,3.4525,3.4525,3.4524,3.4524,0,3.4106,3.4165,3.4169,3.4209,3.4274,3.4269,3.4333,3.4344,3.4366,3.4406,3.4389,3.4427,3.4423,3.4461,3.446,3.452,3.453,3.4532,3.4531,3.4533,3.4533,3.4545,3.4538,3.4528,3.4527,3.4526,3.4526,0,3.4212,3.4218,3.4287,3.4312,3.432,3.4366,3.4386,3.4424,3.4429,3.4481,3.4493,3.4501,3.4546,3.4547,3.4597,3.4596,3.467,3.4662,3.4661,3.4659,3.4706,3.4701,3.4863,3.4883,3.4745,3.4747,3.4748,0,3.4284,3.4329,3.4358,3.4385,3.4401,3.4445,3.4471,3.4467,3.4495,3.4529,3.4562,3.4605,3.4639,3.471,3.472,3.4758,3.475,3.4804,3.4755,3.4756,3.4749,3.4745,3.4749,3.4813,3.4814,3.4816,3.4817,0,3.441,3.441,3.4449,3.4488,3.452,3.4551,3.458,3.4602,3.4602,3.4634,3.4679,3.4706,3.4758,3.48,3.4837,3.485,3.4833,3.4832,3.4845,3.4847,3.4844,3.4844,3.4685,3.4828,3.4827,3.4826,3.4825,3.4825,3.4499,3.4538,3.4564,3.4608,3.4629,3.4656,3.4692,3.4703,3.4741,3.4783,3.4779,3.4829,3.4854,3.4902,3.4919,3.4957,3.4938,3.4957,3.4961,3.4966,3.497,3.4839,3.4964,3.4964,3.4963,3.4963,3.4963,0,3.4623,3.4639,3.4679,3.472,3.4754,3.4736,3.4767,3.4796,3.4841,3.4866,3.49,3.4951,3.4992,3.5005,3.5044,3.5072,3.5065,3.5082,3.5079,3.5082,3.4986,3.497,3.5087,3.5087,3.5087,3.5087,3.5087,3.5087,3.4691,3.4754,3.4757,3.4831,3.4846,3.4896,3.4914,3.4938,3.4958,3.5017,3.5051,3.506,3.508,3.512,3.5156,3.5159,3.5173,3.5194,3.5193,3.5102,3.5089,3.5077,3.5062,3.5197,3.5197,3.5286,3.5287,3.5287]}]]